Volver al catálogo

NOAA 18

ActivoMeteoSSO
NORAD 28654·PAYLOAD·🇺🇸 United States

Lanzado May 20, 2005 desde Vandenberg Space Force Base

Loading…

Próximos Pases (próximas 24 horas)

TLE

ActualizadoSource: Space-Track

Época: Sep 14, 2026, 13:55 UTC

1 28654U 05018A   26257.58042519  .00000045  00000-0  46931-4 0  9991
2 28654  98.8058 335.9367 0013204 255.6268 104.3439 14.13743109 98942

Sigue NOAA 18 en tiempo real con AllMySat

Download on the App Store